This is the latest recevied weather packets stored in our database for station/object OK4ZAW-16. If no packets are shown the sender has not sent any weather packets the latest 10 day(s).
| Time | Temp. | Humidity | Pressure | Rain* | Wind** | Luminosity | Snow |
|---|---|---|---|---|---|---|---|
| 1777290288 | 9.44° C | 57% | 1023.2 hPa | - | - | 150 W/m² | - |
| 1777289871 | 8.33° C | 55% | 1023.2 hPa | - | - | 150 W/m² | - |
| 1777289455 | 9.44° C | 53% | 1023.3 hPa | - | - | 150 W/m² | - |
| 1777289038 | 10° C | 58% | 1023.3 hPa | - | - | 150 W/m² | - |
| 1777288622 | 8.89° C | 55% | 1023.3 hPa | - | - | 150 W/m² | - |
| 1777288206 | 8.89° C | 55% | 1023.3 hPa | - | - | 150 W/m² | - |
| 1777287789 | 8.89° C | 56% | 1023.4 hPa | - | - | 150 W/m² | - |
| 1777287373 | 8.89° C | 56% | 1023.4 hPa | - | - | 150 W/m² | - |
| 1777286956 | 8.33° C | 56% | 1023.5 hPa | - | - | 150 W/m² | - |
| 1777286540 | 7.78° C | 57% | 1023.5 hPa | - | - | 150 W/m² | - |
| 1777286123 | 8.33° C | 56% | 1023.5 hPa | - | - | 150 W/m² | - |
| 1777285707 | 8.89° C | 57% | 1023.6 hPa | - | - | 150 W/m² | - |
| 1777285290 | 8.89° C | 56% | 1023.6 hPa | - | - | 150 W/m² | - |
| 1777284874 | 8.33° C | 57% | 1023.5 hPa | - | - | 150 W/m² | - |
| 1777284457 | 8.33° C | 59% | 1023.6 hPa | - | - | 150 W/m² | - |
| 1777284041 | 8.33° C | 58% | 1023.6 hPa | - | - | 150 W/m² | - |
| 1777283624 | 8.89° C | 57% | 1023.7 hPa | - | - | 150 W/m² | - |
| 1777283208 | 8.33° C | 56% | 1023.7 hPa | - | - | 150 W/m² | - |
| 1777282791 | 8.33° C | 60% | 1023.8 hPa | - | - | 150 W/m² | - |
| 1777282375 | 8.33° C | 59% | 1023.8 hPa | - | - | 150 W/m² | - |
| 1777281958 | 8.33° C | 61% | 1023.9 hPa | - | - | 150 W/m² | - |
| 1777281542 | 8.33° C | 62% | 1023.9 hPa | - | - | 150 W/m² | - |
| 1777281125 | 7.78° C | 63% | 1024 hPa | - | - | 150 W/m² | - |
| 1777280709 | 7.22° C | 66% | 1024 hPa | - | - | 150 W/m² | - |
| 1777280293 | 6.67° C | 68% | 1024 hPa | - | - | 150 W/m² | - |
* Rain since midnight (hover to see other rain measurements)
** Current wind speed in m/s (hover to see current wind gust speed)